TimePDT,TemperatureF,Dew PointF,Humidity,Sea Level PressureIn,VisibilityMPH,Wind Direction,Wind SpeedMPH,Gust SpeedMPH,PrecipitationIn,Events,Conditions,WindDirDegrees,DateUTC
12:53 AM,-9999,-9999,N/A,29.81,-9999.0,North,-9999.0,-,N/A,,Unknown,0,2013-08-28 07:53:00
1:53 AM,-9999,-9999,N/A,29.81,-9999.0,North,-9999.0,-,N/A,,Unknown,0,2013-08-28 08:53:00
2:53 AM,-9999,-9999,N/A,29.81,-9999.0,North,-9999.0,-,N/A,,Unknown,0,2013-08-28 09:53:00
3:53 AM,-9999,-9999,N/A,29.81,-9999.0,North,-9999.0,-,N/A,,Unknown,0,2013-08-28 10:53:00
4:53 AM,-9999,-9999,N/A,29.81,-9999.0,North,-9999.0,-,N/A,,Unknown,0,2013-08-28 11:53:00
5:53 AM,-9999,-9999,N/A,29.82,-9999.0,North,-9999.0,-,N/A,,Unknown,0,2013-08-28 12:53:00
6:53 AM,-9999,-9999,N/A,29.84,-9999.0,North,-9999.0,-,N/A,,Unknown,0,2013-08-28 13:53:00
6:55 AM,-9999,-9999,N/A,29.85,25.0,North,5.8,-,N/A,,Partly Cloudy,350,2013-08-28 13:55:00
7:53 AM,-9999,-9999,N/A,29.86,-9999.0,North,-9999.0,-,N/A,,Unknown,0,2013-08-28 14:53:00
8:49 AM,-9999,-9999,N/A,29.87,25.0,WNW,6.9,-,N/A,,Clear,300,2013-08-28 15:49:00
8:53 AM,-9999,-9999,N/A,29.87,-9999.0,North,-9999.0,-,N/A,,Unknown,0,2013-08-28 15:53:00
9:50 AM,-9999,-9999,N/A,29.88,25.0,NW,5.8,-,N/A,,Clear,310,2013-08-28 16:50:00
9:53 AM,-9999,-9999,N/A,29.88,-9999.0,North,-9999.0,-,N/A,,Unknown,0,2013-08-28 16:53:00
10:51 AM,-9999,-9999,N/A,29.88,20.0,WNW,6.9,-,N/A,,Clear,290,2013-08-28 17:51:00
11:53 AM,-9999,-9999,N/A,29.88,-9999.0,North,-9999.0,-,N/A,,Unknown,0,2013-08-28 18:53:00
12:02 PM,-9999,-9999,N/A,29.88,20.0,WNW,5.8,-,N/A,,Clear,300,2013-08-28 19:02:00
12:52 PM,-9999,-9999,N/A,29.87,20.0,WNW,6.9,-,N/A,,Clear,300,2013-08-28 19:52:00
12:53 PM,-9999,-9999,N/A,29.87,-9999.0,North,-9999.0,-,N/A,,Unknown,0,2013-08-28 19:53:00
1:52 PM,-9999,-9999,N/A,29.85,20.0,NNW,5.8,-,N/A,,Clear,340,2013-08-28 20:52:00
1:53 PM,-9999,-9999,N/A,29.85,-9999.0,North,-9999.0,-,N/A,,Unknown,0,2013-08-28 20:53:00
2:51 PM,-9999,-9999,N/A,29.84,20.0,NNW,5.8,-,N/A,,Clear,330,2013-08-28 21:51:00
2:53 PM,-9999,-9999,N/A,29.84,-9999.0,North,-9999.0,-,N/A,,Unknown,0,2013-08-28 21:53:00
3:53 PM,91.9,53.1,27,29.82,10.0,North,10.4,-,N/A,,Clear,10,2013-08-28 22:53:00
4:53 PM,91.9,54.0,27,29.81,10.0,NW,8.1,-,N/A,,Clear,320,2013-08-28 23:53:00
5:53 PM,91.0,53.1,27,29.81,10.0,NNW,12.7,-,N/A,,Clear,330,2013-08-29 00:53:00
6:53 PM,88.0,55.0,32,29.81,10.0,NW,13.8,19.6,N/A,,Clear,320,2013-08-29 01:53:00
7:53 PM,82.9,57.9,42,29.82,10.0,NW,11.5,-,N/A,,Clear,320,2013-08-29 02:53:00
8:53 PM,80.1,57.0,45,29.85,10.0,NW,11.5,20.7,N/A,,Clear,320,2013-08-29 03:53:00
9:53 PM,78.1,57.9,50,29.86,10.0,NW,8.1,-,N/A,,Clear,320,2013-08-29 04:53:00
10:53 PM,75.0,60.1,60,29.88,10.0,NNW,9.2,-,N/A,,Clear,330,2013-08-29 05:53:00
11:53 PM,73.0,60.1,64,29.88,10.0,North,8.1,-,N/A,,Clear,350,2013-08-29 06:53:00